Voltar ao catálogo

COSMOS 447

AtivoMilitarLEO
NORAD 5550·PAYLOAD·🇷🇺 Russia

Lançado Oct 13, 1971 de Plesetsk Cosmodrome

Loading…

Próximas Passagens (próximas 24 horas)

TLE

AtualizadoSource: Space-Track

Época: Sep 14, 2026, 13:54 UTC

1 05550U 71086D   26257.57921638 -.00000004  00000-0  75667-4 0  9990
2 05550  74.0291 190.0853 0066135 189.4464 346.1930 12.50624867507372

Acompanhe COSMOS 447 em tempo real com AllMySat

Download on the App Store